TimeEDT,TemperatureF,Dew PointF,Humidity,Sea Level PressureIn,VisibilityMPH,Wind Direction,Wind SpeedMPH,Gust SpeedMPH,PrecipitationIn,Events,Conditions,WindDirDegrees,DateUTC
12:53 AM,39.9,39.0,97,30.27,10.0,South,3.5,-,N/A,,Clear,190,2013-05-06 04:53:00
1:53 AM,39.0,37.9,96,30.26,7.0,SSW,4.6,-,N/A,,Clear,200,2013-05-06 05:53:00
2:45 AM,37.4,37.4,100,30.25,5.0,Calm,Calm,-,N/A,,Scattered Clouds,0,2013-05-06 06:45:00
2:53 AM,37.9,36.0,93,30.25,2.5,Calm,Calm,-,N/A,,Mostly Cloudy,0,2013-05-06 06:53:00
3:02 AM,37.4,35.6,93,30.25,0.8,South,3.5,-,N/A,,Mist,170,2013-05-06 07:02:00
3:13 AM,37.4,37.4,100,30.24,0.2,South,3.5,-,N/A,Fog,Fog,170,2013-05-06 07:13:00
3:32 AM,37.4,37.4,100,30.24,0.8,South,3.5,-,N/A,,Mist,180,2013-05-06 07:32:00
3:38 AM,37.4,37.4,100,30.24,2.0,South,3.5,-,N/A,,Overcast,170,2013-05-06 07:38:00
3:50 AM,37.4,37.4,100,30.24,0.8,SSE,3.5,-,N/A,,Mist,160,2013-05-06 07:50:00
3:51 AM,37.9,37.9,100,30.25,0.8,SSE,3.5,-,N/A,,Mist,160,2013-05-06 07:51:00
4:19 AM,37.4,37.4,100,30.23,0.2,Calm,Calm,-,N/A,Fog,Fog,0,2013-05-06 08:19:00
4:41 AM,37.4,37.4,100,30.24,0.5,SSW,3.5,-,N/A,Fog,Fog,200,2013-05-06 08:41:00
4:53 AM,37.0,37.0,100,30.25,0.5,South,3.5,-,N/A,Fog,Fog,180,2013-05-06 08:53:00
5:30 AM,37.4,37.4,100,30.25,0.2,South,3.5,-,N/A,Fog,Fog,190,2013-05-06 09:30:00
5:42 AM,37.4,37.4,100,30.25,0.2,SSW,3.5,-,N/A,Fog,Fog,200,2013-05-06 09:42:00
5:53 AM,37.9,37.0,97,30.26,0.2,SSW,3.5,-,N/A,Fog,Fog,200,2013-05-06 09:53:00
6:53 AM,39.9,39.9,100,30.27,0.2,SSW,4.6,-,N/A,Fog,Fog,210,2013-05-06 10:53:00
7:21 AM,41.0,41.0,100,30.27,1.0,SSW,5.8,-,N/A,,Mist,200,2013-05-06 11:21:00
7:26 AM,42.8,42.8,100,30.27,3.0,South,5.8,-,N/A,,Overcast,190,2013-05-06 11:26:00
7:45 AM,42.8,42.8,100,30.27,10.0,South,6.9,-,N/A,,Scattered Clouds,190,2013-05-06 11:45:00
7:53 AM,44.1,43.0,96,30.28,10.0,South,8.1,-,N/A,,Partly Cloudy,190,2013-05-06 11:53:00
8:53 AM,51.1,42.1,71,30.27,10.0,South,8.1,-,N/A,,Clear,190,2013-05-06 12:53:00
9:53 AM,54.0,41.0,62,30.27,10.0,Variable,6.9,-,N/A,,Clear,0,2013-05-06 13:53:00
10:53 AM,59.0,41.0,51,30.27,10.0,SSW,8.1,-,N/A,,Clear,210,2013-05-06 14:53:00
11:53 AM,61.0,39.9,46,30.25,10.0,South,6.9,16.1,N/A,,Clear,180,2013-05-06 15:53:00
12:53 PM,64.0,39.0,40,30.23,10.0,South,11.5,-,N/A,,Clear,180,2013-05-06 16:53:00
1:53 PM,64.9,37.9,37,30.21,10.0,South,8.1,-,N/A,,Clear,190,2013-05-06 17:53:00
2:53 PM,66.0,37.9,36,30.19,10.0,SSE,9.2,-,N/A,,Clear,160,2013-05-06 18:53:00
3:53 PM,64.9,30.9,28,30.18,10.0,South,12.7,17.3,N/A,,Clear,170,2013-05-06 19:53:00
4:53 PM,63.0,36.0,37,30.17,10.0,Variable,6.9,-,N/A,,Clear,0,2013-05-06 20:53:00
5:53 PM,59.0,39.0,48,30.16,10.0,South,9.2,20.7,N/A,,Clear,190,2013-05-06 21:53:00
6:53 PM,57.0,42.1,57,30.16,10.0,South,8.1,-,N/A,,Clear,190,2013-05-06 22:53:00
7:53 PM,52.0,44.1,74,30.17,10.0,South,5.8,-,N/A,,Clear,180,2013-05-06 23:53:00
8:53 PM,46.0,44.1,93,30.18,10.0,South,8.1,-,N/A,,Partly Cloudy,170,2013-05-07 00:53:00
9:28 PM,44.6,42.8,93,30.18,10.0,SSW,6.9,-,N/A,,Mostly Cloudy,200,2013-05-07 01:28:00
9:53 PM,46.0,44.1,93,30.19,10.0,SSW,4.6,-,N/A,,Overcast,210,2013-05-07 01:53:00
10:53 PM,44.1,42.1,93,30.19,10.0,South,5.8,-,N/A,,Mostly Cloudy,180,2013-05-07 02:53:00
11:26 PM,44.6,42.8,93,30.18,10.0,South,5.8,-,N/A,,Overcast,180,2013-05-07 03:26:00
11:53 PM,44.1,43.0,96,30.19,10.0,Variable,4.6,-,N/A,,Overcast,0,2013-05-07 03:53:00